| time (UTC) | temp F | wind direction | speed knots | gust knots | rain 1hr in | rain 24hr in | rain mn in | humidity % | barometer mb |
| 20260906100028 | 0 | 242 | 2.6 | 5.2 | 0.00 | 0.00 | 0.00 | 1019.9 | |
| 20260906094524 | 0 | 191 | 0.0 | 0.9 | 0.00 | 0.00 | 0.00 | 1019.8 | |
| 20260906093022 | 0 | 191 | 0.0 | 2.6 | 0.00 | 0.00 | 0.00 | 1019.7 | |
| 20260906091516 | 0 | 191 | 0.0 | 0.0 | 0.00 | 0.00 | 0.00 | 1019.6 | |
| 20260906090010 | 0 | 191 | 0.0 | 4.3 | 0.00 | 0.00 | 0.00 | 1019.7 | |
| 20260906084506 | 0 | 177 | 0.0 | 0.0 | 0.00 | 0.00 | 0.00 | 1019.7 | |
| 20260906083001 | 0 | 177 | 0.9 | 5.2 | 0.00 | 0.00 | 0.00 | 1019.7 | |
| 20260906081558 | 0 | 245 | 2.6 | 8.7 | 0.00 | 0.00 | 0.00 | 1019.9 | |
| 20260906080053 | 0 | 222 | 6.1 | 10.4 | 0.00 | 0.00 | 0.00 | 1019.6 | |
| 20260906074551 | 0 | 239 | 2.6 | 5.2 | 0.00 | 0.00 | 0.00 | 1019.6 | |
| 20260906073044 | 0 | 218 | 4.3 | 7.0 | 0.00 | 0.00 | 0.00 | 1019.3 | |
| 20260906071539 | 0 | 231 | 0.9 | 6.1 | 0.00 | 0.00 | 0.00 | 1019.0 | |
| 20260906070035 | 0 | 235 | 2.6 | 6.1 | 0.00 | 0.00 | 0.00 | 1018.8 | |
| 20260906064530 | 0 | 221 | 2.6 | 6.1 | 0.00 | 0.00 | 0.00 | 1018.8 | |
| 20260906063028 | 0 | 229 | 2.6 | 4.3 | 0.00 | 0.00 | 0.00 | 1018.7 | |
| 20260906061524 | 0 | 284 | 0.0 | 0.0 | 0.00 | 0.00 | 0.00 | 1018.6 | |
| 20260906060017 | 0 | 284 | 0.0 | 0.0 | 0.00 | 0.00 | 0.00 | 1018.6 | |
| 20260906054513 | 0 | 282 | 0.0 | 3.5 | 0.00 | 0.00 | 0.00 | 1018.7 | |
| 20260906053008 | 0 | 229 | 3.5 | 5.2 | 0.00 | 0.00 | 0.00 | 1018.8 | |
| 20260906051505 | 0 | 235 | 2.6 | 8.7 | 0.00 | 0.00 | 0.00 | 1018.9 | |
| 20260906050002 | 0 | 231 | 4.3 | 8.7 | 0.00 | 0.00 | 0.00 | 1018.7 | |
| 20260906044557 | 0 | 248 | 3.5 | 7.0 | 0.00 | 0.00 | 0.00 | 1018.4 | |
| 20260906043059 | 0 | 228 | 2.6 | 5.2 | 0.00 | 0.00 | 0.00 | 1018.4 | |
| 20260906041552 | 0 | 117 | 0.0 | 0.0 | 0.00 | 0.00 | 0.00 | 1018.2 | |
| 20260906040043 | 0 | 117 | 0.0 | 0.0 | 0.00 | 0.00 | 0.00 | 1018.2 | |
| 20260906034537 | 0 | 162 | 0.0 | 3.5 | 0.00 | 0.00 | 0.00 | 1018.1 | |
| 20260906033036 | 0 | 245 | 0.0 | 0.0 | 0.00 | 0.00 | 0.00 | 1018.3 | |
| 20260906031528 | 0 | 245 | 0.0 | 0.0 | 0.00 | 0.00 | 0.00 | 1018.5 | |
| 20260906030024 | 0 | 245 | 0.0 | 0.0 | 0.00 | 0.00 | 0.00 | 1018.8 | |
| 20260906024520 | 0 | 246 | 1.7 | 5.2 | 0.00 | 0.00 | 0.00 | 1018.8 | |
| 20260906023016 | 0 | 219 | 5.2 | 7.8 | 0.00 | 0.00 | 0.00 | 1018.6 | |
| 20260906021511 | 0 | 254 | 3.5 | 5.2 | 0.00 | 0.00 | 0.00 | 1018.4 | |
| 20260906020010 | 0 | 243 | 3.5 | 5.2 | 0.00 | 0.00 | 0.00 | 1018.4 | |
| 20260906014504 | 0 | 213 | 0.0 | 0.0 | 0.00 | 0.00 | 0.00 | 1018.5 | |
| 20260906013109 | 0 | 213 | 0.0 | 3.5 | 0.00 | 0.00 | 0.00 | 1018.5 | |
| 20260906011601 | 0 | 213 | 0.0 | 3.5 | 0.00 | 0.00 | 0.00 | 1018.6 | |
| 20260906010046 | 0 | 213 | 0.0 | 0.0 | 0.00 | 0.00 | 0.00 | 1018.7 | |
| 20260906004542 | 0 | 213 | 1.7 | 3.5 | 0.00 | 0.00 | 0.00 | 1018.8 | |
| 20260906003030 | 0 | 213 | 0.0 | 3.5 | 0.00 | 0.00 | 0.00 | 1018.9 | |
| 20260906001526 | 0 | 213 | 2.6 | 5.2 | 0.00 | 0.00 | 0.00 | 1019.1 | |
| 20260906000036 | 0 | 216 | 1.7 | 7.0 | 0.00 | 0.00 | 0.00 | 1019.2 | |
| 20260905234517 | 0 | 223 | 0.0 | 0.0 | 0.00 | 0.00 | 0.00 | 1019.4 | |
| 20260905233012 | 0 | 223 | 1.7 | 6.1 | 0.00 | 0.00 | 0.00 | 1019.4 | |
| 20260905231508 | 0 | 212 | 4.3 | 8.7 | 0.00 | 0.00 | 0.00 | 1019.6 | |
| 20260905230003 | 0 | 203 | 6.1 | 10.4 | 0.00 | 0.00 | 0.00 | 1019.6 | |
| 20260905224559 | 0 | 230 | 5.2 | 8.7 | 0.00 | 0.00 | 0.00 | 1019.6 | |
| 20260905223055 | 0 | 225 | 6.1 | 7.0 | 0.00 | 0.00 | 0.00 | 1019.5 | |
| 20260905221552 | 0 | 232 | 4.3 | 7.0 | 0.00 | 0.00 | 0.00 | 1019.6 | |
| 20260905220045 | 0 | 228 | 2.6 | 6.1 | 0.00 | 0.00 | 0.00 | 1019.5 | |
| 20260905214544 | 0 | 215 | 5.2 | 7.8 | 0.00 | 0.00 | 0.00 | 1019.3 | |
| 20260905213044 | 0 | 229 | 3.5 | 5.2 | 0.00 | 0.00 | 0.00 | 1019.3 | |
| 20260905211550 | 0 | 236 | 2.6 | 4.3 | 0.00 | 0.00 | 0.00 | 1019.1 | |
| 20260905210047 | 0 | 246 | 1.7 | 5.2 | 0.00 | 0.00 | 0.00 | 1018.9 | |
| 20260905204546 | 0 | 229 | 2.6 | 6.1 | 0.00 | 0.00 | 0.00 | 1018.8 | |
| 20260905203043 | 0 | 227 | 3.5 | 5.2 | 0.00 | 0.00 | 0.00 | 1018.7 | |
| 20260905201541 | 0 | 222 | 2.6 | 7.0 | 0.00 | 0.00 | 0.00 | 1018.7 | |
| 20260905200041 | 0 | 219 | 4.3 | 7.8 | 0.00 | 0.00 | 0.00 | 1018.8 | |
| 20260905194535 | 0 | 225 | 0.0 | 5.2 | 0.00 | 0.00 | 0.00 | 1018.8 | |
| 20260905193030 | 0 | 238 | 2.6 | 7.0 | 0.00 | 0.00 | 0.00 | 1018.6 | |
| 20260905191600 | 0 | 245 | 2.6 | 5.2 | 0.00 | 0.00 | 0.00 | 1018.4 | |
| 20260905190053 | 0 | 256 | 3.5 | 7.0 | 0.00 | 0.00 | 0.00 | 1018.0 | |
| 20260905184608 | 0 | 254 | 2.6 | 5.2 | 0.00 | 0.00 | 0.00 | 1017.9 | |
| 20260905183048 | 0 | 53 | 3.5 | 7.0 | 0.00 | 0.00 | 0.00 | 1017.7 | |
| 20260905181546 | 0 | 296 | 2.6 | 7.0 | 0.00 | 0.00 | 0.00 | 1017.4 | |
| 20260905180035 | 0 | 347 | 3.5 | 5.2 | 0.00 | 0.00 | 0.00 | 1017.3 | |
| 20260905174529 | 0 | 21 | 3.5 | 8.7 | 0.00 | 0.00 | 0.00 | 1017.2 | |
| 20260905173020 | 0 | 354 | 2.6 | 8.7 | 0.00 | 0.00 | 0.00 | 1017.2 | |
| 20260905171516 | 0 | 20 | 6.1 | 9.6 | 0.00 | 0.00 | 0.00 | 1017.2 | |
| 20260905170012 | 0 | 345 | 6.1 | 10.4 | 0.00 | 0.00 | 0.00 | 1017.4 | |
| 20260905164507 | 0 | 17 | 0.0 | 9.6 | 0.00 | 0.00 | 0.00 | 1017.5 | |
| 20260905163004 | 0 | 329 | 2.6 | 8.7 | 0.00 | 0.00 | 0.00 | 1017.5 | |
| 20260905161558 | 0 | 36 | 7.8 | 12.2 | 0.00 | 0.00 | 0.00 | 1017.4 | |
| 20260905160054 | 0 | 41 | 7.0 | 11.3 | 0.00 | 0.00 | 0.00 | 1017.5 | |
| 20260905154610 | 0 | 210 | 0.9 | 9.6 | 0.00 | 0.00 | 0.00 | 1017.8 | |
| 20260905153045 | 0 | 304 | 4.3 | 7.8 | 0.00 | 0.00 | 0.00 | 1017.6 | |
| 20260905151540 | 0 | 313 | 2.6 | 10.4 | 0.00 | 0.00 | 0.00 | 1017.5 | |
| 20260905150038 | 0 | 6 | 6.1 | 9.6 | 0.00 | 0.00 | 0.00 | 1017.4 | |
| 20260905144539 | 0 | 56 | 4.3 | 10.4 | 0.00 | 0.00 | 0.00 | 1017.6 | |
| 20260905143037 | 0 | 27 | 4.3 | 8.7 | 0.00 | 0.00 | 0.00 | 1017.4 | |
| 20260905141536 | 0 | 23 | 7.8 | 11.3 | 0.00 | 0.00 | 0.00 | 1017.4 | |
| 20260905140039 | 0 | 46 | 5.2 | 9.6 | 0.00 | 0.00 | 0.00 | 1017.5 | |
| 20260905134535 | 0 | 27 | 3.5 | 9.6 | 0.00 | 0.00 | 0.00 | 1017.4 | |
| 20260905133043 | 0 | 17 | 2.6 | 7.0 | 0.00 | 0.00 | 0.00 | 1017.6 | |
| 20260905131634 | 0 | 352 | 3.5 | 9.6 | 0.00 | 0.00 | 0.00 | 1017.7 | |
| 20260905130035 | 0 | 58 | 5.2 | 10.4 | 0.00 | 0.00 | 0.00 | 1018.0 | |
| 20260905124535 | 0 | 10 | 8.7 | 11.3 | 0.00 | 0.00 | 0.00 | 1018.3 | |
| 20260905123031 | 0 | 36 | 5.2 | 9.6 | 0.00 | 0.00 | 0.00 | 1018.4 | |
| 20260905121531 | 0 | 22 | 3.5 | 8.7 | 0.00 | 0.00 | 0.00 | 1018.6 | |
| 20260905120028 | 0 | 354 | 7.8 | 12.2 | 0.00 | 0.00 | 0.00 | 1018.6 | |
| 20260905114526 | 0 | 36 | 1.7 | 5.2 | 0.00 | 0.00 | 0.00 | 1018.7 | |
| 20260905113021 | 0 | 55 | 0.0 | 6.1 | 0.00 | 0.00 | 0.00 | 1018.7 | |
| 20260905111528 | 0 | 10 | 2.6 | 7.0 | 0.00 | 0.00 | 0.00 | 1018.8 | |
| 20260905110029 | 0 | 358 | 0.0 | 4.3 | 0.00 | 0.00 | 0.00 | 1018.8 | |
| 20260905104508 | 0 | 355 | 0.0 | 3.5 | 0.00 | 0.00 | 0.00 | 1018.8 | |
| 20260905103009 | 0 | 353 | 0.0 | 2.6 | 0.00 | 0.00 | 0.00 | 1018.6 | |
| 20260905101605 | 0 | 353 | 3.5 | 5.2 | 0.00 | 0.00 | 0.00 | 1018.7 |